Lid_Strength_Index
4 4 4 4 4 4 4 4 4 4 4 4 3 3 3 3 3 3 5 4 3 2 0 2 4 6 4 5 4 3 7 9 8 7 6 4 5 3 3 5 6 5 4 2 1
4 4 4 4 4 4 4 4 4 4 4 3 3 3 3 3 3 4 3 2 2 1 2 5 5 5 6 6 6 7 8 8 6 5 6 4 4 4 5 5 6 6 5 2 1
4 4 4 4 4 4 4 4 4 4 4 3 3 3 3 3 4 5 1 1 1 1 1 3 4 5 6 6 6 7 9 6 6 5 5 5 5 4 5 6 5 5 6 5 4
4 4 4 4 4 4 4 4 4 4 3 3 3 3 3 2 8 2 -1 -0 -1 -1 1 2 3 5 6 6 5 7 6 7 6 5 6 6 5 5 5 5 3 3 3 5 5
4 4 5 5 4 4 4 4 4 4 3 3 3 3 2 4 4 -1 -2 -1 -1 0 2 2 4 4 6 5 5 6 6 6 5 6 6 5 6 6 5 4 3 3 3 4 5
4 5 5 5 5 4 4 4 4 3 3 3 3 3 3 6 2 -0 -0 -0 0 1 2 2 3 3 4 5 6 5 5 5 5 6 5 7 7 5 5 4 4 4 4 3 4
4 4 5 5 5 4 4 4 4 3 3 3 2 2 3 4 1 -0 -0 0 -0 1 2 1 2 3 4 5 4 5 7 6 6 6 6 5 8 8 5 4 4 4 3 3 3
4 4 5 5 5 5 4 4 4 2 2 2 1 1 4 0 -1 0 -0 0 -0 0 1 1 1 3 4 3 5 6 6 9 6 5 6 5 11 7 5 5 5 4 3 3 2
4 5 5 5 5 4 4 4 3 2 2 1 1 2 5 0 1 -0 -0 2 1 1 1 1 2 4 4 7 8 7 10 9 8 5 6 6 10 6 5 5 5 5 4 3 3
4 5 5 5 5 4 4 4 2 2 1 1 1 4 3 4 2 1 -0 1 2 2 3 4 4 6 6 8 12 11 11 9 9 7 6 7 8 6 5 5 5 5 5 4 3
4 5 5 5 5 4 4 2 4 4 3 6 5 4 3 1 0 2 1 2 2 4 7 5 9 10 8 7 7 8 9 10 8 6 7 8 7 6 5 5 5 5 5 5 4
4 5 5 5 4 4 3 5 5 5 7 3 3 3 2 1 4 3 1 4 5 8 6 7 10 7 6 6 8 8 9 10 8 6 7 8 8 6 5 5 5 5 5 4 4
5 5 5 4 4 4 3 4 3 2 7 5 3 3 3 2 4 4 3 4 6 8 8 9 8 6 7 9 9 9 10 9 10 8 7 8 9 8 6 5 4 4 4 4 3
5 5 5 5 5 3 3 3 2 2 8 7 5 4 3 3 5 3 2 4 6 8 8 8 6 7 8 9 8 12 8 8 9 10 13 8 13 9 7 6 5 5 5 4 3
5 5 5 5 2 4 4 2 2 2 15 7 5 1 3 5 5 4 2 4 7 8 8 10 9 9 10 8 7 10 8 9 9 11 11 10 12 10 7 8 6 5 5 4 3
5 5 5 3 2 4 3 2 2 10 14 8 6 6 6 5 5 4 4 3 4 7 8 8 5 7 7 7 7 7 9 9 9 10 16 11 12 11 9 8 6 5 5 4 3
5 5 5 3 6 4 3 3 10 11 7 9 8 6 6 7 7 6 7 8 10 14 12 10 8 7 6 8 7 8 10 17 18 18 17 10 12 10 7 6 6 5 5 4 3
5 6 4 3 3 3 3 6 11 9 9 6 7 7 8 7 7 7 8 10 8 9 12 15 14 9 7 8 10 10 10 15 19 18 17 10 13 11 7 5 4 4 4 3 3
6 2 3 4 3 3 5 10 10 9 8 8 8 9 9 8 8 8 9 9 8 8 14 14 14 8 7 6 7 10 13 9 13 12 15 12 10 7 6 6 5 5 4 4 3
5 4 3 3 3 3 7 13 9 7 7 7 10 8 11 9 10 10 10 8 9 8 7 12 16 9 9 7 7 8 8 15 13 19 18 13 12 12 9 7 6 5 5 4 3
5 6 4 3 3 6 10 9 8 6 6 8 8 10 9 11 10 11 10 8 7 9 8 11 13 12 10 11 12 12 14 12 11 13 17 18 15 9 8 6 6 5 4 4 4
5 8 4 3 8 7 10 9 8 7 5 7 6 7 9 9 11 11 11 9 7 8 11 9 13 15 12 8 7 9 11 11 16 15 12 13 15 7 8 6 5 5 4 4 3
7 7 4 4 10 10 8 9 8 7 7 7 7 6 6 10 14 10 9 8 8 9 12 10 14 16 14 11 8 11 10 10 11 11 16 17 16 8 7 6 5 5 4 4 3
7 9 6 5 7 9 10 9 8 6 7 6 7 6 8 11 9 12 11 10 9 9 7 9 13 14 17 14 13 15 12 10 11 16 13 12 15 11 8 9 6 5 4 4 3
6 8 8 10 9 9 8 9 9 8 6 5 7 7 9 13 12 11 11 10 8 8 10 11 15 13 12 12 11 12 12 12 12 11 15 12 15 11 8 8 7 7 5 4 4
8 8 8 8 8 9 10 9 9 8 7 7 8 7 8 11 11 13 11 10 12 9 11 11 14 12 13 10 11 13 11 11 11 11 11 11 12 9 7 6 6 6 6 5 6
5 5 8 9 8 9 9 9 9 7 6 6 7 8 9 8 6 8 7 7 8 12 14 14 13 14 15 12 14 17 12 11 10 9 10 13 11 8 8 8 8 8 7 7 7